PDT,Max TemperatureF,Mean TemperatureF,Min TemperatureF,Max Dew PointF,MeanDew PointF,Min DewpointF,Max Humidity, Mean Humidity, Min Humidity, Max Sea Level PressureIn, Mean Sea Level PressureIn, Min Sea Level PressureIn, Max VisibilityMiles, Mean VisibilityMiles, Min VisibilityMiles, Max Wind SpeedMPH, Mean Wind SpeedMPH, Max Gust SpeedMPH,PrecipitationIn, CloudCover, Events, WindDirDegrees
2013-5-1,64,45,26,28,24,19,84,52,19,30.55,30.50,30.38,10,10,10,13,7,15,0.00,0,,96
2013-5-2,78,55,31,35,30,27,54,29,4,30.54,30.39,30.22,10,10,10,18,6,26,0.00,0,,71
2013-5-3,73,57,41,41,38,35,76,52,27,30.26,30.19,30.12,10,10,10,16,8,23,0.00,0,,332
2013-5-4,76,59,41,42,36,32,83,52,21,30.14,30.04,29.92,10,10,10,28,13,34,0.00,1,,51
2013-5-5,79,60,41,43,38,34,70,46,21,29.92,29.84,29.75,10,10,10,14,8,19,0.00,0,,68
2013-5-6,83,64,45,43,40,35,77,49,20,29.82,29.76,29.69,10,10,10,16,9,22,0.00,0,,86
2013-5-7,85,67,48,48,42,36,71,46,20,29.83,29.78,29.74,10,10,10,14,8,19,0.00,0,,35
2013-5-8,85,67,49,50,46,43,77,51,24,29.96,29.92,29.85,10,10,10,15,7,24,0.00,0,,91
2013-5-9,88,70,51,50,47,40,83,51,18,30.09,30.01,29.96,10,10,10,14,6,17,0.00,0,,74
2013-5-10,92,72,51,48,44,35,71,43,14,30.13,30.06,30.00,10,10,10,16,8,19,0.00,0,,62
2013-5-11,89,74,58,52,47,43,62,42,21,30.09,30.02,29.94,10,10,10,13,6,21,0.00,0,,61
2013-5-12,83,71,59,55,50,45,67,52,37,30.01,29.98,29.94,10,10,10,24,11,27,0.00,1,,265
2013-5-13,71,59,46,54,47,40,93,69,44,30.15,30.02,29.95,10,9,3,28,12,35,0.13,4,Rain-Thunderstorm,265
2013-5-14,67,55,42,40,35,25,83,54,24,30.17,30.10,30.02,10,10,10,14,7,20,0.00,1,,237
2013-5-15,71,55,39,44,36,32,76,51,26,30.05,29.99,29.93,10,10,10,22,9,27,T,3,Rain,232
2013-5-16,72,63,54,42,41,37,74,53,31,29.95,29.89,29.81,10,10,10,9,6,,0.00,2,,322
2013-5-17,66,58,49,43,40,35,74,56,37,30.00,29.91,29.86,10,10,10,24,14,30,0.00,5,,258
2013-5-18,65,55,44,41,38,36,76,58,39,30.15,30.07,29.99,10,10,10,28,14,33,T,5,Rain,247
2013-5-19,70,59,48,41,39,37,68,50,31,30.26,30.22,30.16,10,10,10,18,7,23,0.00,5,,262
2013-5-20,78,60,41,45,41,37,86,58,29,30.27,30.06,29.76,10,10,10,14,6,19,0.00,0,,91
2013-5-21,61,52,42,47,42,36,93,71,49,29.86,29.74,29.67,10,9,2,40,12,49,0.36,5,Rain,225
2013-5-22,54,47,39,42,36,31,93,70,46,29.97,29.91,29.86,10,9,2,23,11,30,0.22,7,Rain,230
2013-5-23,65,49,33,42,36,32,96,66,36,30.00,29.96,29.94,10,10,10,18,5,23,0.00,2,,94
2013-5-24,62,52,42,44,40,37,96,69,42,30.00,29.98,29.94,10,10,6,22,9,28,0.18,5,Rain,224
2013-5-25,68,54,39,42,39,36,86,62,37,30.01,29.97,29.91,10,10,10,16,7,20,0.00,1,,173
2013-5-26,63,54,44,50,46,41,89,73,56,29.97,29.94,29.89,10,10,10,20,8,24,0.02,6,Rain,230
2013-5-27,64,53,41,52,47,40,89,69,48,29.96,29.84,29.74,10,10,8,18,6,22,0.11,5,Rain,198
2013-5-28,68,58,48,50,45,41,93,68,42,29.85,29.81,29.75,10,10,8,21,10,26,0.06,5,Rain,247
2013-5-29,63,54,45,50,45,39,93,72,51,29.91,29.76,29.65,10,10,7,29,12,37,0.10,6,Rain-Thunderstorm,261
2013-5-30,67,58,48,41,37,33,71,51,31,30.15,30.04,29.94,10,10,10,23,13,30,0.00,5,,257
2013-5-31,71,56,41,40,38,37,83,56,29,30.27,30.22,30.17,10,10,10,16,7,20,0.00,0,,231